Time,TemperatureF,DewpointF,PressureIn,WindDirection,WindDirectionDegrees,WindSpeedMPH,WindSpeedGustMPH,Humidity,HourlyPrecipIn,Conditions,Clouds,dailyrainin,SoftwareType,DateUTC
2014-01-15 00:02:00,63.9,13.6,30.31,West,270,2.0,6.0,14,0.00,,,0.05,meteohub,2014-01-15 08:02:00,
2014-01-15 00:07:00,63.5,13.5,30.31,SW,225,2.0,6.0,14,0.00,,,0.00,meteohub,2014-01-15 08:07:00,
2014-01-15 00:12:00,62.8,12.9,30.30,SW,225,5.0,6.0,14,0.00,,,0.00,meteohub,2014-01-15 08:12:00,
2014-01-15 00:17:00,63.1,13.1,30.30,NW,315,5.0,5.0,14,0.00,,,0.00,meteohub,2014-01-15 08:17:00,
2014-01-15 00:22:00,63.7,13.6,30.31,SW,225,2.0,7.0,14,0.00,,,0.00,meteohub,2014-01-15 08:22:00,
2014-01-15 00:27:00,64.6,12.6,30.30,NW,315,3.0,7.0,13,0.00,,,0.00,meteohub,2014-01-15 08:27:00,
2014-01-15 00:32:00,64.6,12.6,30.31,NW,315,2.0,7.0,13,0.00,,,0.00,meteohub,2014-01-15 08:32:00,
2014-01-15 00:37:00,64.2,14.0,30.30,South,180,3.0,6.0,14,0.00,,,0.00,meteohub,2014-01-15 08:37:00,
2014-01-15 00:42:00,63.3,13.3,30.31,North,0,2.0,6.0,14,0.00,,,0.00,meteohub,2014-01-15 08:42:00,
2014-01-15 00:47:00,62.4,14.2,30.31,NW,315,2.0,4.0,15,0.00,,,0.00,meteohub,2014-01-15 08:47:00,
2014-01-15 00:52:00,61.9,13.6,30.31,North,0,2.0,4.0,15,0.00,,,0.00,meteohub,2014-01-15 08:52:00,
2014-01-15 00:57:00,61.9,13.6,30.30,North,0,4.0,4.0,15,0.00,,,0.00,meteohub,2014-01-15 08:57:00,
2014-01-15 01:02:00,61.3,13.3,30.31,North,0,2.0,4.0,15,0.00,,,0.00,meteohub,2014-01-15 09:02:00,
2014-01-15 01:07:00,61.0,12.9,30.31,North,0,2.0,4.0,15,0.00,,,0.00,meteohub,2014-01-15 09:07:00,
2014-01-15 01:12:00,61.3,13.3,30.31,North,0,4.0,4.0,15,0.00,,,0.00,meteohub,2014-01-15 09:12:00,
2014-01-15 01:17:00,61.2,13.1,30.31,North,0,3.0,4.0,15,0.00,,,0.00,meteohub,2014-01-15 09:17:00,
2014-01-15 01:22:00,60.8,12.9,30.31,North,0,4.0,4.0,15,0.00,,,0.00,meteohub,2014-01-15 09:22:00,
2014-01-15 01:27:00,60.8,12.9,30.31,North,0,5.0,5.0,15,0.00,,,0.00,meteohub,2014-01-15 09:27:00,
2014-01-15 01:32:00,61.3,13.3,30.31,North,0,2.0,5.0,15,0.00,,,0.00,meteohub,2014-01-15 09:32:00,
2014-01-15 01:37:00,60.8,12.9,30.31,East,90,2.0,5.0,15,0.00,,,0.00,meteohub,2014-01-15 09:37:00,
2014-01-15 01:42:00,60.6,14.2,30.31,North,0,2.0,5.0,16,0.00,,,0.00,meteohub,2014-01-15 09:42:00,
2014-01-15 01:47:00,61.2,13.1,30.31,North,0,3.0,3.0,15,0.00,,,0.00,meteohub,2014-01-15 09:47:00,
2014-01-15 01:52:00,61.3,13.3,30.32,North,0,3.0,3.0,15,0.00,,,0.00,meteohub,2014-01-15 09:52:00,
2014-01-15 01:57:00,61.3,13.3,30.31,West,270,2.0,4.0,15,0.00,,,0.00,meteohub,2014-01-15 09:57:00,
2014-01-15 02:02:00,61.3,13.3,30.32,North,0,2.0,4.0,15,0.00,,,0.00,meteohub,2014-01-15 10:02:00,
2014-01-15 02:07:00,60.4,14.0,30.32,North,0,3.0,4.0,16,0.00,,,0.00,meteohub,2014-01-15 10:07:00,
2014-01-15 02:12:00,59.7,13.5,30.32,NW,315,3.0,4.0,16,0.00,,,0.00,meteohub,2014-01-15 10:12:00,
2014-01-15 02:17:00,59.5,13.3,30.32,NE,45,3.0,4.0,16,0.00,,,0.00,meteohub,2014-01-15 10:17:00,
2014-01-15 02:22:00,59.0,14.2,30.32,NW,315,3.0,4.0,17,0.00,,,0.00,meteohub,2014-01-15 10:22:00,
2014-01-15 02:27:00,59.0,12.9,30.32,NW,315,3.0,4.0,16,0.00,,,0.00,meteohub,2014-01-15 10:27:00,
2014-01-15 02:31:00,59.2,14.4,30.32,North,0,4.0,4.0,17,0.00,,,0.00,meteohub,2014-01-15 10:31:00,
2014-01-15 02:36:00,58.8,15.4,30.32,NE,45,2.0,5.0,18,0.00,,,0.00,meteohub,2014-01-15 10:36:00,
2014-01-15 02:41:00,59.0,12.9,30.32,North,0,3.0,5.0,16,0.00,,,0.00,meteohub,2014-01-15 10:41:00,
2014-01-15 02:46:00,59.4,13.1,30.32,North,0,2.0,5.0,16,0.00,,,0.00,meteohub,2014-01-15 10:46:00,
2014-01-15 02:52:00,59.0,14.2,30.32,North,0,2.0,4.0,17,0.00,,,0.00,meteohub,2014-01-15 10:52:00,
2014-01-15 02:57:00,58.6,15.3,30.32,North,0,3.0,4.0,18,0.00,,,0.00,meteohub,2014-01-15 10:57:00,
2014-01-15 03:02:00,58.3,14.9,30.32,North,0,2.0,4.0,18,0.00,,,0.00,meteohub,2014-01-15 11:02:00,
2014-01-15 03:07:00,58.1,14.7,30.32,North,0,3.0,4.0,18,0.00,,,0.00,meteohub,2014-01-15 11:07:00,
2014-01-15 03:12:00,58.3,14.9,30.32,NW,315,3.0,4.0,18,0.00,,,0.00,meteohub,2014-01-15 11:12:00,
2014-01-15 03:17:00,58.6,15.3,30.31,North,0,4.0,4.0,18,0.00,,,0.00,meteohub,2014-01-15 11:17:00,
2014-01-15 03:22:00,58.1,14.7,30.32,North,0,3.0,4.0,18,0.00,,,0.00,meteohub,2014-01-15 11:22:00,
2014-01-15 03:27:00,57.9,14.7,30.31,NW,315,3.0,4.0,18,0.00,,,0.00,meteohub,2014-01-15 11:27:00,
2014-01-15 03:32:00,58.6,15.3,30.32,North,0,4.0,4.0,18,0.00,,,0.00,meteohub,2014-01-15 11:32:00,
2014-01-15 03:37:00,57.9,14.7,30.31,NW,315,4.0,4.0,18,0.00,,,0.00,meteohub,2014-01-15 11:37:00,
2014-01-15 03:42:00,57.6,14.4,30.31,NW,315,3.0,4.0,18,0.00,,,0.00,meteohub,2014-01-15 11:42:00,
2014-01-15 03:47:00,57.4,14.2,30.31,North,0,2.0,4.0,18,0.00,,,0.00,meteohub,2014-01-15 11:47:00,
2014-01-15 03:52:00,57.2,14.0,30.31,North,0,2.0,4.0,18,0.00,,,0.00,meteohub,2014-01-15 11:52:00,
2014-01-15 03:57:00,57.0,15.1,30.31,NW,315,4.0,4.0,19,0.00,,,0.00,meteohub,2014-01-15 11:57:00,
2014-01-15 04:02:00,57.0,15.1,30.31,NW,315,2.0,4.0,19,0.00,,,0.00,meteohub,2014-01-15 12:02:00,
2014-01-15 04:07:00,57.2,14.0,30.31,North,0,3.0,4.0,18,0.00,,,0.00,meteohub,2014-01-15 12:07:00,
2014-01-15 04:12:00,57.6,14.4,30.30,NW,315,3.0,4.0,18,0.00,,,0.00,meteohub,2014-01-15 12:12:00,
2014-01-15 04:17:00,57.2,14.0,30.30,North,0,2.0,3.0,18,0.00,,,0.00,meteohub,2014-01-15 12:17:00,
2014-01-15 04:21:00,57.0,15.1,30.30,NE,45,2.0,3.0,19,0.00,,,0.00,meteohub,2014-01-15 12:21:00,
2014-01-15 04:26:00,56.8,15.1,30.30,North,0,3.0,4.0,19,0.00,,,0.00,meteohub,2014-01-15 12:26:00,
2014-01-15 04:31:00,57.2,14.0,30.30,North,0,3.0,4.0,18,0.00,,,0.00,meteohub,2014-01-15 12:31:00,
2014-01-15 04:36:00,57.0,15.1,30.30,North,0,4.0,4.0,19,0.00,,,0.00,meteohub,2014-01-15 12:36:00,
2014-01-15 04:41:00,57.2,14.0,30.30,North,0,3.0,4.0,18,0.00,,,0.00,meteohub,2014-01-15 12:41:00,
2014-01-15 04:46:00,56.8,15.1,30.30,North,0,3.0,4.0,19,0.00,,,0.00,meteohub,2014-01-15 12:46:00,
2014-01-15 04:51:00,56.7,14.9,30.30,North,0,4.0,4.0,19,0.00,,,0.00,meteohub,2014-01-15 12:51:00,
2014-01-15 04:56:00,56.8,15.1,30.30,North,0,4.0,4.0,19,0.00,,,0.00,meteohub,2014-01-15 12:56:00,
2014-01-15 05:01:00,56.8,15.1,30.30,North,0,4.0,4.0,19,0.00,,,0.00,meteohub,2014-01-15 13:01:00,
2014-01-15 05:06:00,57.2,14.0,30.30,NW,315,4.0,4.0,18,0.00,,,0.00,meteohub,2014-01-15 13:06:00,
2014-01-15 05:11:00,57.0,15.1,30.30,North,0,2.0,4.0,19,0.00,,,0.00,meteohub,2014-01-15 13:11:00,
2014-01-15 05:16:00,57.4,14.2,30.30,North,0,3.0,4.0,18,0.00,,,0.00,meteohub,2014-01-15 13:16:00,
2014-01-15 05:21:00,57.6,14.4,30.30,North,0,4.0,4.0,18,0.00,,,0.00,meteohub,2014-01-15 13:21:00,
2014-01-15 05:26:00,57.2,15.3,30.31,North,0,3.0,4.0,19,0.00,,,0.00,meteohub,2014-01-15 13:26:00,
2014-01-15 05:31:00,56.8,16.2,30.31,NW,315,3.0,4.0,20,0.00,,,0.00,meteohub,2014-01-15 13:31:00,
2014-01-15 05:37:00,56.7,16.0,30.30,North,0,2.0,4.0,20,0.00,,,0.00,meteohub,2014-01-15 13:37:00,
2014-01-15 05:42:00,56.5,15.8,30.30,North,0,3.0,4.0,20,0.00,,,0.00,meteohub,2014-01-15 13:42:00,
2014-01-15 05:47:00,56.3,15.8,30.30,North,0,3.0,4.0,20,0.00,,,0.00,meteohub,2014-01-15 13:47:00,
2014-01-15 05:52:00,56.3,15.8,30.30,NW,315,3.0,4.0,20,0.00,,,0.00,meteohub,2014-01-15 13:52:00,
2014-01-15 05:57:00,56.3,16.9,30.31,WNW,293,3.0,4.0,21,0.00,,,0.00,meteohub,2014-01-15 13:57:00,
2014-01-15 06:02:00,56.1,16.7,30.31,NW,315,4.0,4.0,21,0.00,,,0.00,meteohub,2014-01-15 14:02:00,
2014-01-15 06:06:00,56.3,16.9,30.31,North,0,4.0,4.0,21,0.00,,,0.00,meteohub,2014-01-15 14:06:00,
2014-01-15 06:11:00,56.5,17.1,30.31,NW,315,3.0,4.0,21,0.00,,,0.00,meteohub,2014-01-15 14:11:00,
2014-01-15 06:17:00,56.5,17.1,30.31,NW,315,3.0,4.0,21,0.00,,,0.00,meteohub,2014-01-15 14:17:00,
2014-01-15 06:22:00,56.5,15.8,30.31,North,0,2.0,4.0,20,0.00,,,0.00,meteohub,2014-01-15 14:22:00,
2014-01-15 06:27:00,56.5,15.8,30.32,NW,315,2.0,4.0,20,0.00,,,0.00,meteohub,2014-01-15 14:27:00,
2014-01-15 06:32:00,56.7,16.0,30.32,North,0,2.0,4.0,20,0.00,,,0.00,meteohub,2014-01-15 14:32:00,
2014-01-15 06:37:00,56.5,15.8,30.32,NW,315,3.0,4.0,20,0.00,,,0.00,meteohub,2014-01-15 14:37:00,
2014-01-15 06:42:00,56.5,15.8,30.31,North,0,2.0,4.0,20,0.00,,,0.00,meteohub,2014-01-15 14:42:00,
2014-01-15 06:47:00,56.8,16.2,30.31,North,0,4.0,4.0,20,0.00,,,0.00,meteohub,2014-01-15 14:47:00,
2014-01-15 06:52:00,56.7,16.0,30.31,North,0,4.0,4.0,20,0.00,,,0.00,meteohub,2014-01-15 14:52:00,
2014-01-15 06:57:00,56.3,15.8,30.31,WNW,293,2.0,4.0,20,0.00,,,0.00,meteohub,2014-01-15 14:57:00,
2014-01-15 07:02:00,56.5,15.8,30.31,North,0,4.0,4.0,20,0.00,,,0.00,meteohub,2014-01-15 15:02:00,
2014-01-15 07:07:00,56.5,15.8,30.32,North,0,4.0,4.0,20,0.00,,,0.00,meteohub,2014-01-15 15:07:00,
2014-01-15 07:12:00,56.8,16.2,30.31,North,0,3.0,4.0,20,0.00,,,0.00,meteohub,2014-01-15 15:12:00,
2014-01-15 07:17:00,57.2,15.3,30.31,NW,315,3.0,4.0,19,0.00,,,0.00,meteohub,2014-01-15 15:17:00,
2014-01-15 07:22:00,57.7,15.8,30.32,North,0,2.0,4.0,19,0.00,,,0.00,meteohub,2014-01-15 15:22:00,
2014-01-15 07:27:00,58.3,16.2,30.32,North,0,2.0,4.0,19,0.00,,,0.00,meteohub,2014-01-15 15:27:00,
2014-01-15 07:32:00,59.0,15.6,30.32,NW,315,3.0,4.0,18,0.00,,,0.00,meteohub,2014-01-15 15:32:00,
2014-01-15 07:36:00,59.4,17.1,30.32,North,0,3.0,4.0,19,0.00,,,0.00,meteohub,2014-01-15 15:36:00,
2014-01-15 07:41:00,59.5,17.2,30.32,North,0,4.0,4.0,19,0.00,,,0.00,meteohub,2014-01-15 15:41:00,
2014-01-15 07:46:00,60.3,17.8,30.32,North,0,3.0,4.0,19,0.00,,,0.00,meteohub,2014-01-15 15:46:00,
2014-01-15 07:51:00,61.0,18.5,30.32,North,0,3.0,4.0,19,0.00,,,0.00,meteohub,2014-01-15 15:51:00,
2014-01-15 07:56:00,61.5,18.9,30.32,North,0,3.0,4.0,19,0.00,,,0.00,meteohub,2014-01-15 15:56:00,
2014-01-15 08:02:00,62.2,19.4,30.32,North,0,3.0,4.0,19,0.00,,,0.00,meteohub,2014-01-15 16:02:00,
2014-01-15 08:07:00,63.0,18.9,30.32,North,0,2.0,4.0,18,0.00,,,0.00,meteohub,2014-01-15 16:07:00,
2014-01-15 08:12:00,63.7,19.4,30.32,North,0,2.0,3.0,18,0.00,,,0.00,meteohub,2014-01-15 16:12:00,
2014-01-15 08:17:00,64.6,20.1,30.32,NW,315,2.0,3.0,18,0.00,,,0.00,meteohub,2014-01-15 16:17:00,
2014-01-15 08:22:00,65.5,22.1,30.32,North,0,2.0,2.0,19,0.00,,,0.00,meteohub,2014-01-15 16:22:00,
2014-01-15 08:27:00,66.4,20.3,30.32,NW,315,2.0,3.0,17,0.00,,,0.00,meteohub,2014-01-15 16:27:00,
2014-01-15 08:32:00,67.5,22.5,30.33,SE,135,3.0,3.0,18,0.00,,,0.00,meteohub,2014-01-15 16:32:00,
2014-01-15 08:37:00,68.0,25.3,30.33,SE,135,0.0,3.0,20,0.00,,,0.00,meteohub,2014-01-15 16:37:00,
2014-01-15 08:42:00,68.4,21.9,30.33,North,0,2.0,3.0,17,0.00,,,0.00,meteohub,2014-01-15 16:42:00,
2014-01-15 08:47:00,68.9,20.8,30.33,South,180,2.0,3.0,16,0.00,,,0.00,meteohub,2014-01-15 16:47:00,
2014-01-15 08:52:00,69.3,19.6,30.33,East,90,1.0,2.0,15,0.00,,,0.00,meteohub,2014-01-15 16:52:00,
2014-01-15 08:57:00,69.8,14.9,30.33,SW,225,3.0,3.0,12,0.00,,,0.00,meteohub,2014-01-15 16:57:00,
2014-01-15 09:02:00,70.3,13.3,30.34,South,180,1.0,4.0,11,0.00,,,0.00,meteohub,2014-01-15 17:02:00,
2014-01-15 09:07:00,70.7,13.6,30.33,SW,225,3.0,4.0,11,0.00,,,0.00,meteohub,2014-01-15 17:07:00,
2014-01-15 09:12:00,70.7,11.5,30.33,SW,225,2.0,4.0,10,0.00,,,0.00,meteohub,2014-01-15 17:12:00,
2014-01-15 09:17:00,71.1,13.8,30.34,West,270,2.0,3.0,11,0.00,,,0.00,meteohub,2014-01-15 17:17:00,
2014-01-15 09:22:00,71.1,13.8,30.34,SE,135,2.0,3.0,11,0.00,,,0.00,meteohub,2014-01-15 17:22:00,
2014-01-15 09:27:00,71.4,12.0,30.34,South,180,2.0,3.0,10,0.00,,,0.00,meteohub,2014-01-15 17:27:00,
2014-01-15 09:32:00,71.6,12.2,30.34,SW,225,2.0,3.0,10,0.00,,,0.00,meteohub,2014-01-15 17:32:00,
2014-01-15 09:37:00,72.0,12.4,30.34,West,270,3.0,3.0,10,0.00,,,0.00,meteohub,2014-01-15 17:37:00,
2014-01-15 09:42:00,72.1,12.6,30.34,NW,315,1.0,4.0,10,0.00,,,0.00,meteohub,2014-01-15 17:42:00,
2014-01-15 09:47:00,72.5,12.7,30.34,West,270,2.0,4.0,10,0.00,,,0.00,meteohub,2014-01-15 17:47:00,
2014-01-15 09:52:00,72.7,12.9,30.34,NW,315,2.0,4.0,10,0.00,,,0.00,meteohub,2014-01-15 17:52:00,
2014-01-15 09:57:00,73.0,13.3,30.34,NW,315,2.0,3.0,10,0.00,,,0.00,meteohub,2014-01-15 17:57:00,
2014-01-15 10:02:00,73.4,17.8,30.33,SW,225,2.0,4.0,12,0.00,,,0.00,meteohub,2014-01-15 18:02:00,
2014-01-15 10:07:00,73.8,18.0,30.33,North,0,2.0,4.0,12,0.00,,,0.00,meteohub,2014-01-15 18:07:00,
2014-01-15 10:12:00,74.3,18.3,30.33,SW,225,2.0,4.0,12,0.00,,,0.00,meteohub,2014-01-15 18:12:00,
2014-01-15 10:17:00,74.8,18.9,30.33,SE,135,3.0,4.0,12,0.00,,,0.00,meteohub,2014-01-15 18:17:00,
2014-01-15 10:22:00,75.2,17.1,30.33,South,180,3.0,4.0,11,0.00,,,0.00,meteohub,2014-01-15 18:22:00,
2014-01-15 10:27:00,75.4,17.2,30.33,South,180,4.0,4.0,11,0.00,,,0.00,meteohub,2014-01-15 18:27:00,
2014-01-15 10:32:00,75.0,19.0,30.33,SW,225,3.0,4.0,12,0.00,,,0.00,meteohub,2014-01-15 18:32:00,
2014-01-15 10:37:00,75.4,17.2,30.32,South,180,3.0,4.0,11,0.00,,,0.00,meteohub,2014-01-15 18:37:00,
2014-01-15 10:42:00,76.1,17.8,30.32,SW,225,3.0,4.0,11,0.00,,,0.00,meteohub,2014-01-15 18:42:00,
2014-01-15 10:47:00,76.8,18.3,30.32,SW,225,2.0,4.0,11,0.00,,,0.00,meteohub,2014-01-15 18:47:00,
2014-01-15 10:52:00,77.2,16.3,30.32,South,180,3.0,5.0,10,0.00,,,0.00,meteohub,2014-01-15 18:52:00,
2014-01-15 10:57:00,77.7,16.9,30.31,SW,225,3.0,5.0,10,0.00,,,0.00,meteohub,2014-01-15 18:57:00,
2014-01-15 11:02:00,77.9,16.9,30.32,South,180,4.0,4.0,10,0.00,,,0.00,meteohub,2014-01-15 19:02:00,
2014-01-15 11:07:00,78.1,17.1,30.31,South,180,4.0,6.0,10,0.00,,,0.00,meteohub,2014-01-15 19:07:00,
2014-01-15 11:12:00,78.1,17.1,30.31,SW,225,4.0,6.0,10,0.00,,,0.00,meteohub,2014-01-15 19:12:00,
2014-01-15 11:17:00,78.1,17.1,30.31,North,0,3.0,5.0,10,0.00,,,0.00,meteohub,2014-01-15 19:17:00,
2014-01-15 11:22:00,78.6,17.4,30.30,SW,225,2.0,5.0,10,0.00,,,0.00,meteohub,2014-01-15 19:22:00,
2014-01-15 11:27:00,79.2,18.0,30.30,SE,135,2.0,4.0,10,0.00,,,0.00,meteohub,2014-01-15 19:27:00,
2014-01-15 11:32:00,79.3,18.0,30.30,SE,135,4.0,4.0,10,0.00,,,0.00,meteohub,2014-01-15 19:32:00,
2014-01-15 11:37:00,79.2,18.0,30.30,West,270,3.0,4.0,10,0.00,,,0.00,meteohub,2014-01-15 19:37:00,
2014-01-15 11:42:00,79.2,18.0,30.30,South,180,3.0,4.0,10,0.00,,,0.00,meteohub,2014-01-15 19:42:00,
2014-01-15 11:46:00,79.2,18.0,30.29,South,180,4.0,4.0,10,0.00,,,0.00,meteohub,2014-01-15 19:46:00,
2014-01-15 11:51:00,79.2,18.0,30.29,South,180,4.0,4.0,10,0.00,,,0.00,meteohub,2014-01-15 19:51:00,
2014-01-15 11:56:00,79.5,18.1,30.29,South,180,4.0,4.0,10,0.00,,,0.00,meteohub,2014-01-15 19:56:00,
2014-01-15 12:01:00,79.3,18.0,30.28,SW,225,3.0,6.0,10,0.00,,,0.00,meteohub,2014-01-15 20:01:00,
2014-01-15 12:06:00,79.5,18.1,30.28,South,180,5.0,6.0,10,0.00,,,0.00,meteohub,2014-01-15 20:06:00,
2014-01-15 12:11:00,79.5,18.1,30.28,SE,135,4.0,7.0,10,0.00,,,0.00,meteohub,2014-01-15 20:11:00,
2014-01-15 12:17:00,79.9,18.5,30.27,South,180,2.0,7.0,10,0.00,,,0.00,meteohub,2014-01-15 20:17:00,
2014-01-15 12:22:00,80.6,19.0,30.27,SW,225,4.0,7.0,10,0.00,,,0.00,meteohub,2014-01-15 20:22:00,
2014-01-15 12:27:00,80.2,18.7,30.27,SE,135,4.0,4.0,10,0.00,,,0.00,meteohub,2014-01-15 20:27:00,
2014-01-15 12:32:00,80.1,18.5,30.27,South,180,4.0,4.0,10,0.00,,,0.00,meteohub,2014-01-15 20:32:00,
2014-01-15 12:37:00,80.1,18.5,30.26,North,0,3.0,6.0,10,0.00,,,0.00,meteohub,2014-01-15 20:37:00,
2014-01-15 12:41:00,80.6,19.0,30.26,West,270,4.0,6.0,10,0.00,,,0.00,meteohub,2014-01-15 20:41:00,
2014-01-15 12:46:00,80.6,19.0,30.26,SW,225,4.0,6.0,10,0.00,,,0.00,meteohub,2014-01-15 20:46:00,
2014-01-15 12:52:00,80.6,19.0,30.26,NW,315,3.0,5.0,10,0.00,,,0.00,meteohub,2014-01-15 20:52:00,
2014-01-15 12:57:00,80.8,19.2,30.25,South,180,3.0,5.0,10,0.00,,,0.00,meteohub,2014-01-15 20:57:00,
2014-01-15 13:02:00,81.0,19.2,30.26,South,180,4.0,5.0,10,0.00,,,0.00,meteohub,2014-01-15 21:02:00,
2014-01-15 13:07:00,81.3,19.6,30.25,SW,225,4.0,4.0,10,0.00,,,0.00,meteohub,2014-01-15 21:07:00,
2014-01-15 13:12:00,81.5,19.8,30.25,SW,225,2.0,4.0,10,0.00,,,0.00,meteohub,2014-01-15 21:12:00,
2014-01-15 13:17:00,82.0,20.1,30.25,West,270,4.0,4.0,10,0.00,,,0.00,meteohub,2014-01-15 21:17:00,
2014-01-15 13:22:00,81.9,19.9,30.25,SSW,203,3.0,4.0,10,0.00,,,0.00,meteohub,2014-01-15 21:22:00,
2014-01-15 13:27:00,81.3,19.6,30.25,SW,225,2.0,5.0,10,0.00,,,0.00,meteohub,2014-01-15 21:27:00,
2014-01-15 13:32:00,81.7,19.8,30.25,SW,225,3.0,5.0,10,0.00,,,0.00,meteohub,2014-01-15 21:32:00,
2014-01-15 13:36:00,81.7,19.8,30.25,South,180,2.0,5.0,10,0.00,,,0.00,meteohub,2014-01-15 21:36:00,
2014-01-15 13:41:00,82.0,20.1,30.25,SW,225,3.0,4.0,10,0.00,,,0.00,meteohub,2014-01-15 21:41:00,
2014-01-15 13:46:00,82.6,24.8,30.25,SE,135,2.0,4.0,12,0.00,,,0.00,meteohub,2014-01-15 21:46:00,
2014-01-15 13:51:00,82.6,24.8,30.25,SE,135,2.0,4.0,12,0.00,,,0.00,meteohub,2014-01-15 21:51:00,
2014-01-15 13:57:00,83.1,25.3,30.25,South,180,4.0,4.0,12,0.00,,,0.00,meteohub,2014-01-15 21:57:00,
2014-01-15 14:02:00,82.6,24.8,30.25,SW,225,3.0,4.0,12,0.00,,,0.00,meteohub,2014-01-15 22:02:00,
2014-01-15 14:07:00,82.0,20.1,30.25,SW,225,3.0,4.0,10,0.00,,,0.00,meteohub,2014-01-15 22:07:00,
2014-01-15 14:12:00,82.2,20.3,30.25,South,180,3.0,4.0,10,0.00,,,0.00,meteohub,2014-01-15 22:12:00,
2014-01-15 14:17:00,82.4,24.6,30.24,South,180,2.0,4.0,12,0.00,,,0.00,meteohub,2014-01-15 22:17:00,
2014-01-15 14:22:00,82.9,25.2,30.25,SW,225,2.0,4.0,12,0.00,,,0.00,meteohub,2014-01-15 22:22:00,
2014-01-15 14:27:00,83.1,25.3,30.25,SW,225,4.0,4.0,12,0.00,,,0.00,meteohub,2014-01-15 22:27:00,
2014-01-15 14:32:00,82.8,25.0,30.25,SW,225,4.0,4.0,12,0.00,,,0.00,meteohub,2014-01-15 22:32:00,
2014-01-15 14:37:00,82.8,25.0,30.25,South,180,2.0,4.0,12,0.00,,,0.00,meteohub,2014-01-15 22:37:00,
2014-01-15 14:42:00,82.9,25.2,30.24,SW,225,3.0,4.0,12,0.00,,,0.00,meteohub,2014-01-15 22:42:00,
2014-01-15 14:47:00,82.8,25.0,30.24,SE,135,3.0,4.0,12,0.00,,,0.00,meteohub,2014-01-15 22:47:00,
2014-01-15 14:52:00,82.0,20.1,30.25,SW,225,3.0,4.0,10,0.00,,,0.00,meteohub,2014-01-15 22:52:00,
2014-01-15 14:57:00,81.5,19.8,30.25,SW,225,3.0,4.0,10,0.00,,,0.00,meteohub,2014-01-15 22:57:00,
2014-01-15 15:02:00,81.1,19.4,30.24,SE,135,2.0,4.0,10,0.00,,,0.00,meteohub,2014-01-15 23:02:00,
2014-01-15 15:07:00,81.1,19.4,30.24,SW,225,3.0,4.0,10,0.00,,,0.00,meteohub,2014-01-15 23:07:00,
2014-01-15 15:11:00,81.1,19.4,30.25,SW,225,2.0,4.0,10,0.00,,,0.00,meteohub,2014-01-15 23:11:00,
2014-01-15 15:16:00,80.8,19.2,30.24,SW,225,4.0,4.0,10,0.00,,,0.00,meteohub,2014-01-15 23:16:00,
2014-01-15 15:21:00,80.6,19.0,30.24,South,180,2.0,4.0,10,0.00,,,0.00,meteohub,2014-01-15 23:21:00,
2014-01-15 15:27:00,80.2,18.7,30.25,West,270,2.0,4.0,10,0.00,,,0.00,meteohub,2014-01-15 23:27:00,
2014-01-15 15:32:00,80.1,18.5,30.24,South,180,3.0,4.0,10,0.00,,,0.00,meteohub,2014-01-15 23:32:00,
2014-01-15 15:37:00,80.1,18.5,30.25,South,180,2.0,4.0,10,0.00,,,0.00,meteohub,2014-01-15 23:37:00,
2014-01-15 15:42:00,80.4,18.9,30.25,South,180,2.0,4.0,10,0.00,,,0.00,meteohub,2014-01-15 23:42:00,
2014-01-15 15:47:00,80.2,18.7,30.25,South,180,2.0,4.0,10,0.00,,,0.00,meteohub,2014-01-15 23:47:00,
2014-01-15 15:52:00,80.1,18.5,30.25,SW,225,2.0,3.0,10,0.00,,,0.00,meteohub,2014-01-15 23:52:00,
2014-01-15 15:57:00,79.7,18.3,30.25,SW,225,1.0,3.0,10,0.00,,,0.00,meteohub,2014-01-15 23:57:00,
2014-01-15 16:02:00,79.3,18.0,30.24,SW,225,0.0,4.0,10,0.00,,,0.00,meteohub,2014-01-16 00:02:00,
2014-01-15 16:06:00,79.2,18.0,30.24,West,270,2.0,4.0,10,0.00,,,0.00,meteohub,2014-01-16 00:06:00,
2014-01-15 16:12:00,78.8,17.6,30.24,NW,315,2.0,2.0,10,0.00,,,0.00,meteohub,2014-01-16 00:12:00,
2014-01-15 16:17:00,78.8,17.6,30.24,SE,135,2.0,2.0,10,0.00,,,0.00,meteohub,2014-01-16 00:17:00,
2014-01-15 16:22:00,78.8,17.6,30.24,SE,135,2.0,2.0,10,0.00,,,0.00,meteohub,2014-01-16 00:22:00,
2014-01-15 16:27:00,78.6,17.4,30.24,SW,225,2.0,2.0,10,0.00,,,0.00,meteohub,2014-01-16 00:27:00,
2014-01-15 16:32:00,78.6,17.4,30.24,SW,225,2.0,2.0,10,0.00,,,0.00,meteohub,2014-01-16 00:32:00,
2014-01-15 16:37:00,78.4,17.4,30.24,West,270,1.0,2.0,10,0.00,,,0.00,meteohub,2014-01-16 00:37:00,
2014-01-15 16:42:00,78.3,17.2,30.24,West,270,0.0,2.0,10,0.00,,,0.00,meteohub,2014-01-16 00:42:00,
2014-01-15 16:47:00,77.5,16.7,30.24,North,0,2.0,2.0,10,0.00,,,0.00,meteohub,2014-01-16 00:47:00,
2014-01-15 16:52:00,76.1,17.8,30.24,North,0,1.0,2.0,11,0.00,,,0.00,meteohub,2014-01-16 00:52:00,
2014-01-15 16:57:00,75.4,19.2,30.24,North,0,1.0,2.0,12,0.00,,,0.00,meteohub,2014-01-16 00:57:00,
2014-01-15 17:02:00,74.3,20.3,30.24,North,0,2.0,2.0,13,0.00,,,0.00,meteohub,2014-01-16 01:02:00,
2014-01-15 17:07:00,72.9,15.3,30.24,North,0,2.0,2.0,11,0.00,,,0.00,meteohub,2014-01-16 01:07:00,
2014-01-15 17:12:00,71.8,14.4,30.24,WNW,293,2.0,2.0,11,0.00,,,0.00,meteohub,2014-01-16 01:12:00,
2014-01-15 17:17:00,71.1,15.8,30.23,North,0,2.0,2.0,12,0.00,,,0.00,meteohub,2014-01-16 01:17:00,
2014-01-15 17:22:00,70.5,15.4,30.23,North,0,2.0,3.0,12,0.00,,,0.00,meteohub,2014-01-16 01:22:00,
2014-01-15 17:27:00,69.8,14.9,30.24,North,0,2.0,3.0,12,0.00,,,0.00,meteohub,2014-01-16 01:27:00,
2014-01-15 17:31:00,69.1,16.2,30.23,North,0,2.0,3.0,13,0.00,,,0.00,meteohub,2014-01-16 01:31:00,
2014-01-15 17:37:00,68.7,15.8,30.24,NE,45,1.0,3.0,13,0.00,,,0.00,meteohub,2014-01-16 01:37:00,
2014-01-15 17:41:00,68.0,15.3,30.23,NE,45,2.0,3.0,13,0.00,,,0.00,meteohub,2014-01-16 01:41:00,
2014-01-15 17:47:00,67.3,16.5,30.23,North,0,2.0,2.0,14,0.00,,,0.00,meteohub,2014-01-16 01:47:00,
2014-01-15 17:52:00,66.7,16.0,30.23,North,0,3.0,3.0,14,0.00,,,0.00,meteohub,2014-01-16 01:52:00,
2014-01-15 17:57:00,66.7,16.0,30.23,North,0,3.0,3.0,14,0.00,,,0.00,meteohub,2014-01-16 01:57:00,
2014-01-15 18:02:00,66.9,16.2,30.24,NW,315,4.0,4.0,14,0.00,,,0.00,meteohub,2014-01-16 02:02:00,
2014-01-15 18:07:00,66.9,16.2,30.23,North,0,2.0,4.0,14,0.00,,,0.00,meteohub,2014-01-16 02:07:00,
2014-01-15 18:12:00,66.7,16.0,30.24,North,0,2.0,4.0,14,0.00,,,0.00,meteohub,2014-01-16 02:12:00,
2014-01-15 18:17:00,66.2,15.6,30.24,NE,45,2.0,4.0,14,0.00,,,0.00,meteohub,2014-01-16 02:17:00,
2014-01-15 18:22:00,65.7,16.7,30.24,North,0,2.0,3.0,15,0.00,,,0.00,meteohub,2014-01-16 02:22:00,
2014-01-15 18:27:00,65.7,16.7,30.24,North,0,2.0,3.0,15,0.00,,,0.00,meteohub,2014-01-16 02:27:00,
2014-01-15 18:32:00,65.7,16.7,30.24,North,0,3.0,3.0,15,0.00,,,0.00,meteohub,2014-01-16 02:32:00,
2014-01-15 18:37:00,65.7,16.7,30.24,North,0,3.0,3.0,15,0.00,,,0.00,meteohub,2014-01-16 02:37:00,
2014-01-15 18:42:00,65.1,16.3,30.24,NE,45,3.0,3.0,15,0.00,,,0.00,meteohub,2014-01-16 02:42:00,
2014-01-15 18:47:00,64.9,16.2,30.24,North,0,2.0,3.0,15,0.00,,,0.00,meteohub,2014-01-16 02:47:00,
2014-01-15 18:52:00,64.9,16.2,30.24,NW,315,2.0,3.0,15,0.00,,,0.00,meteohub,2014-01-16 02:52:00,
2014-01-15 18:57:00,64.8,16.0,30.24,NW,315,2.0,3.0,15,0.00,,,0.00,meteohub,2014-01-16 02:57:00,
2014-01-15 19:02:00,64.8,16.0,30.24,North,0,2.0,3.0,15,0.00,,,0.00,meteohub,2014-01-16 03:02:00,
2014-01-15 19:07:00,64.6,15.8,30.24,SW,225,2.0,3.0,15,0.00,,,0.00,meteohub,2014-01-16 03:07:00,
2014-01-15 19:12:00,64.8,16.0,30.24,North,0,3.0,4.0,15,0.00,,,0.00,meteohub,2014-01-16 03:12:00,
2014-01-15 19:17:00,64.9,16.2,30.24,NW,315,3.0,4.0,15,0.00,,,0.00,meteohub,2014-01-16 03:17:00,
2014-01-15 19:22:00,64.9,16.2,30.24,North,0,3.0,4.0,15,0.00,,,0.00,meteohub,2014-01-16 03:22:00,
2014-01-15 19:27:00,64.4,15.8,30.24,North,0,3.0,4.0,15,0.00,,,0.00,meteohub,2014-01-16 03:27:00,
2014-01-15 19:32:00,64.2,17.1,30.24,North,0,4.0,4.0,16,0.00,,,0.00,meteohub,2014-01-16 03:32:00,
2014-01-15 19:37:00,63.9,16.7,30.24,North,0,2.0,4.0,16,0.00,,,0.00,meteohub,2014-01-16 03:37:00,
2014-01-15 19:42:00,63.7,16.7,30.24,North,0,2.0,4.0,16,0.00,,,0.00,meteohub,2014-01-16 03:42:00,
2014-01-15 19:47:00,63.3,16.3,30.24,North,0,2.0,4.0,16,0.00,,,0.00,meteohub,2014-01-16 03:47:00,
2014-01-15 19:52:00,63.1,17.6,30.24,North,0,3.0,4.0,17,0.00,,,0.00,meteohub,2014-01-16 03:52:00,
2014-01-15 19:57:00,62.8,17.2,30.24,North,0,2.0,4.0,17,0.00,,,0.00,meteohub,2014-01-16 03:57:00,
2014-01-15 20:02:00,62.6,17.2,30.24,North,0,2.0,3.0,17,0.00,,,0.00,meteohub,2014-01-16 04:02:00,
2014-01-15 20:07:00,62.6,17.2,30.24,North,0,2.0,3.0,17,0.00,,,0.00,meteohub,2014-01-16 04:07:00,
2014-01-15 20:12:00,61.9,18.0,30.24,NW,315,3.0,3.0,18,0.00,,,0.00,meteohub,2014-01-16 04:12:00,
2014-01-15 20:17:00,61.7,17.8,30.24,North,0,3.0,4.0,18,0.00,,,0.00,meteohub,2014-01-16 04:17:00,
2014-01-15 20:22:00,61.7,17.8,30.24,North,0,3.0,4.0,18,0.00,,,0.00,meteohub,2014-01-16 04:22:00,
2014-01-15 20:27:00,61.7,17.8,30.24,North,0,2.0,4.0,18,0.00,,,0.00,meteohub,2014-01-16 04:27:00,
2014-01-15 20:32:00,61.9,18.0,30.24,North,0,4.0,4.0,18,0.00,,,0.00,meteohub,2014-01-16 04:32:00,
2014-01-15 20:37:00,61.7,17.8,30.24,NW,315,2.0,4.0,18,0.00,,,0.00,meteohub,2014-01-16 04:37:00,
2014-01-15 20:42:00,61.3,16.2,30.24,North,0,2.0,4.0,17,0.00,,,0.00,meteohub,2014-01-16 04:42:00,
2014-01-15 20:47:00,61.2,16.0,30.24,North,0,3.0,4.0,17,0.00,,,0.00,meteohub,2014-01-16 04:47:00,
2014-01-15 20:52:00,61.2,16.0,30.24,North,0,3.0,4.0,17,0.00,,,0.00,meteohub,2014-01-16 04:52:00,
2014-01-15 20:57:00,61.0,15.8,30.24,NW,315,2.0,4.0,17,0.00,,,0.00,meteohub,2014-01-16 04:57:00,
2014-01-15 21:01:00,60.6,16.9,30.24,North,0,3.0,4.0,18,0.00,,,0.00,meteohub,2014-01-16 05:01:00,
2014-01-15 21:02:00,60.6,16.9,30.24,NW,315,4.0,4.0,18,0.00,,,0.00,meteohub,2014-01-16 05:02:00,
2014-01-15 21:07:00,60.4,16.7,30.24,NW,315,3.0,4.0,18,0.00,,,0.00,meteohub,2014-01-16 05:07:00,
2014-01-15 21:12:00,60.8,15.6,30.24,North,0,3.0,4.0,17,0.00,,,0.00,meteohub,2014-01-16 05:12:00,
2014-01-15 21:17:00,61.2,14.5,30.25,North,0,3.0,4.0,16,0.00,,,0.00,meteohub,2014-01-16 05:17:00,
2014-01-15 21:22:00,61.2,14.5,30.24,North,0,3.0,4.0,16,0.00,,,0.00,meteohub,2014-01-16 05:22:00,
2014-01-15 21:27:00,61.0,15.8,30.24,NW,315,2.0,4.0,17,0.00,,,0.00,meteohub,2014-01-16 05:27:00,
2014-01-15 21:32:00,60.6,16.9,30.24,NW,315,3.0,4.0,18,0.00,,,0.00,meteohub,2014-01-16 05:32:00,
2014-01-15 21:37:00,60.6,16.9,30.24,NE,45,3.0,3.0,18,0.00,,,0.00,meteohub,2014-01-16 05:37:00,
2014-01-15 21:42:00,60.8,15.6,30.24,NW,315,2.0,4.0,17,0.00,,,0.00,meteohub,2014-01-16 05:42:00,
2014-01-15 21:47:00,61.0,15.8,30.24,North,0,3.0,4.0,17,0.00,,,0.00,meteohub,2014-01-16 05:47:00,
2014-01-15 21:52:00,61.2,16.0,30.24,North,0,4.0,4.0,17,0.00,,,0.00,meteohub,2014-01-16 05:52:00,
2014-01-15 21:57:00,60.6,15.6,30.23,NW,315,2.0,4.0,17,0.00,,,0.00,meteohub,2014-01-16 05:57:00,
2014-01-15 22:02:00,60.4,16.7,30.24,North,0,3.0,4.0,18,0.00,,,0.00,meteohub,2014-01-16 06:02:00,
2014-01-15 22:07:00,60.4,16.7,30.23,North,0,4.0,4.0,18,0.00,,,0.00,meteohub,2014-01-16 06:07:00,
2014-01-15 22:12:00,60.3,16.5,30.24,North,0,3.0,4.0,18,0.00,,,0.00,meteohub,2014-01-16 06:12:00,
2014-01-15 22:17:00,60.4,15.4,30.24,NW,315,2.0,4.0,17,0.00,,,0.00,meteohub,2014-01-16 06:17:00,
2014-01-15 22:22:00,60.3,15.3,30.23,NW,315,4.0,4.0,17,0.00,,,0.00,meteohub,2014-01-16 06:22:00,
2014-01-15 22:27:00,60.4,15.4,30.23,NW,315,2.0,4.0,17,0.00,,,0.00,meteohub,2014-01-16 06:27:00,
2014-01-15 22:32:00,60.4,15.4,30.23,North,0,3.0,4.0,17,0.00,,,0.00,meteohub,2014-01-16 06:32:00,
2014-01-15 22:37:00,60.6,15.6,30.23,NW,315,2.0,4.0,17,0.00,,,0.00,meteohub,2014-01-16 06:37:00,
2014-01-15 22:42:00,60.8,14.4,30.23,North,0,3.0,4.0,16,0.00,,,0.00,meteohub,2014-01-16 06:42:00,
2014-01-15 22:47:00,60.8,14.4,30.22,North,0,3.0,4.0,16,0.00,,,0.00,meteohub,2014-01-16 06:47:00,
2014-01-15 22:52:00,60.6,15.6,30.22,North,0,4.0,4.0,17,0.00,,,0.00,meteohub,2014-01-16 06:52:00,
2014-01-15 22:57:00,60.1,15.1,30.22,NW,315,2.0,4.0,17,0.00,,,0.00,meteohub,2014-01-16 06:57:00,
2014-01-15 23:01:00,59.7,14.9,30.22,North,0,3.0,4.0,17,0.00,,,0.00,meteohub,2014-01-16 07:01:00,
2014-01-15 23:07:00,59.5,14.7,30.22,North,0,4.0,4.0,17,0.00,,,0.00,meteohub,2014-01-16 07:07:00,
2014-01-15 23:12:00,59.9,14.9,30.22,North,0,2.0,4.0,17,0.00,,,0.00,meteohub,2014-01-16 07:12:00,
2014-01-15 23:17:00,59.9,14.9,30.22,NW,315,4.0,4.0,17,0.00,,,0.00,meteohub,2014-01-16 07:17:00,
2014-01-15 23:22:00,59.9,14.9,30.22,NW,315,3.0,4.0,17,0.00,,,0.00,meteohub,2014-01-16 07:22:00,
2014-01-15 23:27:00,59.7,14.9,30.22,North,0,3.0,4.0,17,0.00,,,0.00,meteohub,2014-01-16 07:27:00,
2014-01-15 23:32:00,59.7,14.9,30.22,North,0,2.0,4.0,17,0.00,,,0.00,meteohub,2014-01-16 07:32:00,
2014-01-15 23:37:00,59.5,14.7,30.22,North,0,3.0,4.0,17,0.00,,,0.00,meteohub,2014-01-16 07:37:00,
2014-01-15 23:42:00,59.7,14.9,30.22,North,0,3.0,4.0,17,0.00,,,0.00,meteohub,2014-01-16 07:42:00,
2014-01-15 23:47:00,59.7,14.9,30.22,West,270,3.0,4.0,17,0.00,,,0.00,meteohub,2014-01-16 07:47:00,
2014-01-15 23:52:00,59.7,14.9,30.22,North,0,4.0,4.0,17,0.00,,,0.00,meteohub,2014-01-16 07:52:00,
2014-01-15 23:57:00,59.5,14.7,30.21,North,0,4.0,4.0,17,0.00,,,0.00,meteohub,2014-01-16 07:57:00,